Regional Weather Roundup
Issued by NWS

Home | Current Version | Previous Version | Text Only | Print | Product List | Glossary Off
Versions: 1 2 3 4 5 6 7 8 9 10 11 12 13 14 15 16 17 18 19 20 21 22 23 24 25 26 27 28 29 30 31 32 33 34 35 36 37 38 39 40 41 42 43 44 45 46 47 48 49 50

000
ASUS43 KMPX 151510
RWRMN
WEATHER ROUNDUP FOR MINNESOTA
NATIONAL WEATHER SERVICE TWIN CITIES/CHANHASSEN MN
1000 AM CDT TUE APR 15 2014


NOTE: "FAIR" INDICATES FEW OR NO CLOUDS BELOW 12,000 FEET WITH NO
SIGNIFICANT WEATHER AND/OR OBSTRUCTIONS TO VISIBILITY. N/A MEANS
CURRENT SKY AND/OR WEATHER CONDITIONS ARE NOT AVAILABLE.

MNZ060>063-068>070-151600-
   Twin Cities Metro

CITY           SKY/WX    TMP DP  RH WIND       PRES   REMARKS
TWIN CITIES    MOSUNNY   24   5  44 W8        30.17S WCI  15
ST PAUL        SUNNY     25   7  46 W8        30.18S WCI  16
CRYSTAL        SUNNY     25   7  46 VRB7      30.16S WCI  17
BLAINE         MOSUNNY   27   9  46 NW6       30.16R WCI  20
EDEN PRAIRIE   SUNNY     25   7  46 NW8       30.16S WCI  16
LAKEVILLE      SUNNY     25   9  50 NW8       30.17R WCI  16
SOUTH ST PAUL  MOSUNNY   28   7  41 W8        30.17S WCI  20
LAKE ELMO      FAIR      27  10  50 W6        30.17R WCI  20
$$
MNZ001>005-007-008-013>017-022>024-027-028-151600-
   Northwest Minnesota

CITY           SKY/WX    TMP DP  RH WIND       PRES   REMARKS
BEMIDJI        SUNNY     17  -2  43 N8        30.10F WCI   7
HALLOCK          N/A     18   3  53 SE7       30.14F WCI   8
ROSEAU         SUNNY     18   1  49 CALM      30.13F
WARROAD        SUNNY     14   1  57 CALM      30.14F
THIEF RVR FALL SUNNY     19   1  45 CALM      30.14F
CROOKSTON      SUNNY     19   3  49 S5        30.17F WCI  13
FOSSTON        SUNNY     18   1  49 CALM      30.14R
DETROIT LAKES  SUNNY     19   9  63 CALM      30.13F
MOORHEAD       SUNNY     21   7  53 SW1       30.17F
PARK RAPIDS    SUNNY     18   2  49 W5        30.12R WCI  11
$$
MNZ006-009>011-018-025>026-151600-
   North Central Minnesota

CITY           SKY/WX    TMP DP  RH WIND       PRES   REMARKS
BAUDETTE       SUNNY     14   0  53 NW3       30.13S
FLAG ISLAND    SUNNY      9  -2  61 CALM      30.13S
INTL FALLS     SUNNY     16   1  51 CALM      30.10F
WASKISH        SUNNY     14   1  57 W7        30.13S WCI   4
BIG FORK       SUNNY     18   0  45 CALM      30.11S
LONGVILLE      SUNNY     16  -2  45 NW3       30.12F
GRAND RAPIDS   SUNNY     16   0  48 NW7       30.10S WCI   6
CRANE LAKE     SUNNY     21  12  68 CALM      30.11F
ORR            SUNNY     16   1  53 NW3       30.07S
COOK           SUNNY     16   3  57 CALM      30.09S
$$
MNZ012-019>021-037-151600-
   Northeast Minnesota

CITY           SKY/WX    TMP DP  RH WIND       PRES   REMARKS
DULUTH         SUNNY     20   5  52 W7        30.07F WCI  11
ELY            SUNNY     18  -2  41 NW3       30.06S
HIBBING        SUNNY     18   3  52 MISG      30.09S
EVELETH        SUNNY     18   3  53 W6        30.09S WCI   9
DULUTH HARBOR  SUNNY     21   5  49 CALM      30.15S
TWO HARBORS    SUNNY     21   7  53 NW3       30.07S
SILVER BAY     SUNNY     21   7  53 NW5       30.07R WCI  15
GRAND MARAIS     N/A     25   7  46 VRB6      30.09S WCI  18
G MARAIS ARPRT PTSUNNY   16   1  53 NW7       30.00S WCI   6
$$
MNZ029>031-032-039>041-046>048-054>057-064-151600-
   West Central Minnesota

CITY           SKY/WX    TMP DP  RH WIND       PRES   REMARKS
FERGUS FALLS   SUNNY     19   1  45 SW3       30.15F
WHEATON        SUNNY     25  10  54 CALM      30.19F
MORRIS         SUNNY     23   7  50 W7        30.15F WCI  15
ALEXANDRIA     SUNNY     18   5  57 SW5       30.15F WCI  11
ELBOW LAKE     FAIR      19   2  47 CALM      30.16F
WADENA         SUNNY     18   7  62 CALM      30.13F
GLENWOOD       SUNNY     19   7  58 SW3       30.15S
APPLETON       SUNNY     25   7  46 NW6       30.18F WCI  18
BENSON         SUNNY     21   5  49 NW7       30.17F WCI  13
ORTONVILLE     SUNNY     23  10  58 CALM      30.15F
MADISON        SUNNY     27  12  54 CALM      30.17F
WILLMAR        FAIR      21   5  49 W6        30.17F WCI  14
$$
MNZ033>034-036-042>043-049>051-058-059-151600-
   Central Minnesota

CITY           SKY/WX    TMP DP  RH WIND       PRES   REMARKS
ST CLOUD       SUNNY     23   4  44 NW7       30.16S WCI  15
SAUK CENTRE    FAIR      20   7  57 W6        30.16S WCI  12
PAYNESVILLE    SUNNY     21   8  58 CALM      30.17F
AITKIN         SUNNY     21  -6  30 NW6       30.11F WCI  14
PINE RIVER     SUNNY     18   0  45 NW6       30.15S WCI   9
BRAINERD       SUNNY     22  -3  33 CALM      30.14S
STAPLES        SUNNY     18   1  49 N5        30.13F WCI  11
LONG PRAIRIE   FAIR      18   3  53 CALM      30.15F
LITTLE FALLS   SUNNY     19  -4  35 W7        30.16S WCI  10
LITCHFIELD     SUNNY     21   9  58 NW5       30.17F WCI  15
BUFFALO        SUNNY     23   7  49 W8        30.18S WCI  14
MAPLE LAKE     SUNNY     24  10  54 NW6       30.18S WCI  17
$$
MNZ037-044-045-052-053-151600-
   East Central Minnesota

CITY           SKY/WX    TMP DP  RH WIND       PRES   REMARKS
PRINCETON      SUNNY     25   7  46 W3        30.15S
MORA           SUNNY     25   5  42 N8        30.16S WCI  16
CAMBRIDGE      SUNNY     25  10  54 W6        30.14R WCI  18
RUSH CITY      SUNNY     23   6  47 NW5       30.15S WCI  17
MOOSE LAKE     SUNNY     21   3  45 N6        30.11S WCI  14
HINCKLEY       FAIR      23   5  46 NW7       30.13F WCI  15
CLOQUET        SUNNY     19   3  49 W6        30.09S WCI  11
MCGREGOR       SUNNY     19   3  49 W6        30.12F WCI  11
$$
MNZ071>073-080-081-089-090-097-098-151600-
   Southwest Minnesota

CITY           SKY/WX    TMP DP  RH WIND       PRES   REMARKS
MONTEVIDEO     SUNNY     27  16  63 N6        30.19F WCI  20
GRANITE FALLS  SUNNY     24   9  54 NW6       30.20S WCI  17
CANBY          SUNNY     24  17  73 SE3       30.17F
MARSHALL       SUNNY     25  10  54 CALM      30.16F
REDWOOD FALLS  SUNNY     24   6  46 NW8       30.18F WCI  15
OLIVIA         SUNNY     27   9  46 NW9       30.17F WCI  17
PIPESTONE      SUNNY     25  12  58 S5        30.12S WCI  19
WINDOM         SUNNY     25   9  50 W8        30.16S WCI  16
WORTHINGTON    SUNNY     27   9  46 CALM      30.16F
JACKSON        SUNNY     27   9  46 W8        30.16S WCI  18
TRACY          SUNNY     25  12  57 CALM      30.16F
SLAYTON        SUNNY     24  10  54 CALM      30.14F
$$
MNZ065>067-074>077-082>085-091>093-151600-
   South Central Minnesota

CITY           SKY/WX    TMP DP  RH WIND       PRES   REMARKS
MANKATO        SUNNY     25   9  50 NW8       30.18F WCI  16
NEW ULM        SUNNY     23   5  46 NW8       30.17F WCI  14
ST JAMES       SUNNY     27   5  39 NW7       30.19S WCI  19
FAIRMONT       SUNNY     25   3  39 NW12      30.19S WCI  14
GLENCOE        SUNNY     24   7  48 W10       30.17S WCI  14
FARIBAULT      SUNNY     28   7  40 W9        30.17S WCI  20
OWATONNA       MOSUNNY   25  10  54 W7        30.16S WCI  17
WASECA         SUNNY     27  14  59 W10       30.19S WCI  17
ALBERT LEA     SUNNY     25  10  54 NW6       30.16S WCI  18
$$
MNZ078>079-086>088-094>096-151600-
   Southeast Minnesota

CITY           SKY/WX    TMP DP  RH WIND       PRES   REMARKS
ROCHESTER      MOSUNNY   26  14  60 NW9       30.14R WCI  17
RED WING       MOSUNNY   28   9  43 NW6       30.15S WCI  22
STANTON        MOSUNNY   27  10  49 W6        30.16R WCI  20
DODGE CENTER   MOSUNNY   27  10  50 NW9G16    30.14R WCI  17
WINONA         PTSUNNY   30  16  55 W6        30.17R WCI  24
AUSTIN         MOSUNNY   25  12  58 NW9       30.15R WCI  15
PRESTON        MOSUNNY   25  13  60 NW8       30.14R WCI  17
$$
ABBREVIATIONS USED IN REMARKS
   TC - TEMPERATURES IN CELSIUS
  WCI - WIND CHILL INDEX
   HX - HEAT INDEX
  VSB - VISIBILITY
$$


USA.gov is the U.S. government's official web portal to all federal, state and local government web resources and services.